RYR4387 EPMO-LEPA

Flight info

Callsign RYR4387
Flight time 2h 56m
Altitude 38000
Route EVINA DCT NAVUR N744 TUSIN DCT MIKOV DCT DETSA/N0443F390 DCT VOG DCT GEKBA DCT VAMTU DCT KOLON DCT GANGU DCT PADKO DCT VATIR N852 VERSO L129 LUNIK
Aircraft B738/M-SDE2E3FGHIRWXY/LB1

Departure

Time 2026-04-25 12:12
Airport Warsaw Modlin Airport (EPMO)

Arrival

Time 2026-04-25 15:08
Airport Palma de Mallorca Airport (LEPA)
Time Latitude Longitude Altitude Speed Heading
2026-04-25 11:38 52.44748 20.65261 337 ft 0 kts 206°
2026-04-25 12:03 52.44762 20.65272 337 ft 2 kts 206°
2026-04-25 12:04 52.44776 20.65284 337 ft 2 kts 206°
2026-04-25 12:04 52.44791 20.65295 337 ft 2 kts 206°
2026-04-25 12:04 52.44801 20.65303 337 ft 2 kts 206°
2026-04-25 12:04 52.44808 20.65309 337 ft 0 kts 206°
2026-04-25 12:07 52.44807 20.65309 337 ft 0 kts 205°
2026-04-25 12:07 52.44801 20.65313 337 ft 2 kts 154°
2026-04-25 12:07 52.44801 20.65350 337 ft 6 kts 81°
2026-04-25 12:08 52.44813 20.65473 337 ft 15 kts 82°
2026-04-25 12:08 52.44833 20.65694 337 ft 23 kts 82°
2026-04-25 12:08 52.44859 20.65982 337 ft 25 kts 81°
2026-04-25 12:08 52.44886 20.66255 337 ft 22 kts 81°
2026-04-25 12:09 52.44909 20.66502 337 ft 22 kts 82°
2026-04-25 12:09 52.44930 20.66745 337 ft 21 kts 82°
2026-04-25 12:09 52.44951 20.66980 335 ft 21 kts 78°
2026-04-25 12:09 52.45063 20.67059 337 ft 20 kts 352°
2026-04-25 12:10 52.45183 20.67022 333 ft 9 kts 347°
2026-04-25 12:10 52.45185 20.67022 337 ft 0 kts 347°
2026-04-25 12:10 52.45188 20.67021 337 ft 2 kts 347°
2026-04-25 12:10 52.45245 20.66992 335 ft 14 kts 338°
2026-04-25 12:11 52.45279 20.66877 337 ft 1 kts 262°
2026-04-25 12:11 52.45269 20.66762 333 ft 39 kts 261°
2026-04-25 12:11 52.45188 20.65926 336 ft 109 kts 262°
2026-04-25 12:11 52.45027 20.64394 453 ft 153 kts 258°
2026-04-25 12:12 52.44850 20.62699 1285 ft 147 kts 259°
2026-04-25 12:12 52.44687 20.61040 2089 ft 150 kts 258°
2026-04-25 12:12 52.44495 20.59183 2500 ft 178 kts 259°
2026-04-25 12:12 52.44284 20.57171 3203 ft 180 kts 262°
2026-04-25 12:13 52.44394 20.55141 3846 ft 183 kts 289°
2026-04-25 12:13 52.45117 20.53406 4483 ft 195 kts 313°
2026-04-25 12:13 52.46450 20.52383 4743 ft 231 kts 343°
2026-04-25 12:13 52.48113 20.52111 5166 ft 254 kts 350°
2026-04-25 12:14 52.49931 20.51979 5809 ft 265 kts 351°
2026-04-25 12:14 52.51788 20.51854 6665 ft 268 kts 351°
2026-04-25 12:14 52.53629 20.51712 7519 ft 269 kts 351°
2026-04-25 12:14 52.55504 20.51554 8369 ft 270 kts 351°
2026-04-25 12:15 52.57393 20.51463 9186 ft 276 kts 359°
2026-04-25 12:15 52.59266 20.52487 9962 ft 295 kts 26°
2026-04-25 12:15 52.60788 20.54918 10483 ft 324 kts 52°
2026-04-25 12:15 52.61598 20.58582 10687 ft 359 kts 76°
2026-04-25 12:16 52.61916 20.62772 11044 ft 377 kts 82°
2026-04-25 12:16 52.62182 20.67128 11611 ft 386 kts 80°
2026-04-25 12:16 52.62517 20.71527 12342 ft 389 kts 79°
2026-04-25 12:16 52.62885 20.75958 13110 ft 392 kts 80°
2026-04-25 12:17 52.63111 20.80472 13847 ft 398 kts 83°
2026-04-25 12:17 52.63266 20.85050 14538 ft 403 kts 84°
2026-04-25 12:17 52.63427 20.89695 15255 ft 408 kts 83°
2026-04-25 12:17 52.63516 20.94327 15941 ft 415 kts 92°
2026-04-25 12:18 52.62805 20.98957 16617 ft 421 kts 115°
2026-04-25 12:18 52.61208 21.02985 17289 ft 422 kts 135°
2026-04-25 12:18 52.58940 21.05999 17963 ft 419 kts 151°
2026-04-25 12:18 52.56477 21.08580 18605 ft 422 kts 152°
2026-04-25 12:19 52.52305 21.12883 19651 ft 428 kts 152°
2026-04-25 12:19 52.48936 21.16439 20499 ft 432 kts 151°
2026-04-25 12:19 52.46408 21.19136 21108 ft 435 kts 151°
2026-04-25 12:20 52.43762 21.21516 21647 ft 431 kts 166°
2026-04-25 12:20 52.40896 21.22398 22206 ft 419 kts 185°
2026-04-25 12:20 52.38046 21.21820 22788 ft 407 kts 202°
2026-04-25 12:20 52.35467 21.20056 23295 ft 399 kts 216°
2026-04-25 12:21 52.33248 21.17383 23723 ft 393 kts 230°
2026-04-25 12:21 52.31482 21.13998 24167 ft 391 kts 237°
2026-04-25 12:21 52.29821 21.10450 24626 ft 394 kts 237°
2026-04-25 12:21 52.28139 21.06892 25057 ft 397 kts 237°
2026-04-25 12:22 52.26445 21.03384 25496 ft 399 kts 236°
2026-04-25 12:22 52.24547 21.00012 25896 ft 407 kts 229°
2026-04-25 12:22 52.22439 20.96890 26280 ft 411 kts 227°
2026-04-25 12:22 52.20275 20.93822 26667 ft 414 kts 226°
2026-04-25 12:23 52.18092 20.90744 27047 ft 416 kts 226°
2026-04-25 12:23 52.15909 20.87639 27390 ft 418 kts 227°
2026-04-25 12:23 52.13724 20.84497 27690 ft 419 kts 227°
2026-04-25 12:23 52.11537 20.81332 27971 ft 422 kts 227°
2026-04-25 12:24 52.09339 20.78139 28256 ft 424 kts 227°
2026-04-25 12:24 52.07134 20.74936 28539 ft 426 kts 227°
2026-04-25 12:24 52.04920 20.71722 28814 ft 427 kts 227°
2026-04-25 12:24 52.02725 20.68542 29094 ft 429 kts 227°
2026-04-25 12:25 52.00488 20.65304 29357 ft 430 kts 227°
2026-04-25 12:25 51.98241 20.62058 29599 ft 432 kts 227°
2026-04-25 12:25 51.95977 20.58818 29785 ft 437 kts 225°
2026-04-25 12:25 51.93373 20.56142 29968 ft 452 kts 209°
2026-04-25 12:26 51.90410 20.54353 30269 ft 456 kts 205°
2026-04-25 12:26 51.87410 20.52686 30551 ft 456 kts 205°
2026-04-25 12:26 51.84399 20.51019 30832 ft 456 kts 205°
2026-04-25 12:26 51.81415 20.49337 31168 ft 454 kts 205°
2026-04-25 12:27 51.78478 20.47653 31495 ft 452 kts 206°
2026-04-25 12:27 51.75521 20.45936 31799 ft 452 kts 206°
2026-04-25 12:27 51.72565 20.44213 32119 ft 450 kts 206°
2026-04-25 12:27 51.69625 20.42502 32415 ft 449 kts 206°
2026-04-25 12:28 51.66682 20.40796 32683 ft 449 kts 206°
2026-04-25 12:28 51.63634 20.39494 32951 ft 458 kts 193°
2026-04-25 12:28 51.60452 20.38987 33285 ft 459 kts 191°
2026-04-25 12:28 51.57264 20.38612 33553 ft 459 kts 190°
2026-04-25 12:29 51.54072 20.38234 33781 ft 459 kts 191°
2026-04-25 12:29 51.50885 20.37813 34059 ft 458 kts 191°
2026-04-25 12:29 51.47718 20.37353 34362 ft 456 kts 192°
2026-04-25 12:29 51.44605 20.36881 34600 ft 456 kts 192°
2026-04-25 12:30 51.41441 20.36388 34803 ft 455 kts 194°
2026-04-25 12:30 51.38418 20.35145 34940 ft 443 kts 210°
2026-04-25 12:30 51.35817 20.32675 35167 ft 430 kts 223°
2026-04-25 12:30 51.33439 20.29794 35466 ft 427 kts 224°
2026-04-25 12:31 51.31096 20.26890 35691 ft 427 kts 224°
2026-04-25 12:31 51.28741 20.23972 35847 ft 428 kts 224°
2026-04-25 12:31 51.26377 20.21071 36050 ft 429 kts 224°
2026-04-25 12:31 51.24004 20.18191 36284 ft 428 kts 223°
2026-04-25 12:32 51.21621 20.15321 36469 ft 429 kts 223°
2026-04-25 12:32 51.19262 20.12492 36632 ft 430 kts 223°
2026-04-25 12:32 51.16874 20.09638 36873 ft 429 kts 223°
2026-04-25 12:32 51.14489 20.06794 37217 ft 425 kts 223°
2026-04-25 12:33 51.12136 20.03991 37563 ft 421 kts 223°
2026-04-25 12:33 51.09799 20.01208 37791 ft 420 kts 223°
2026-04-25 12:33 51.07454 19.98413 37886 ft 422 kts 223°
2026-04-25 12:34 51.02727 19.92792 37892 ft 424 kts 223°
2026-04-25 12:34 50.98011 19.87217 37888 ft 421 kts 223°
2026-04-25 12:35 50.93359 19.81733 37893 ft 418 kts 223°
2026-04-25 12:35 50.88700 19.76250 37900 ft 416 kts 223°
2026-04-25 12:36 50.84063 19.70805 37912 ft 414 kts 223°
2026-04-25 12:36 50.79456 19.65406 37920 ft 414 kts 223°
2026-04-25 12:37 50.74821 19.59988 37927 ft 415 kts 223°
2026-04-25 12:37 50.70186 19.54583 37914 ft 416 kts 223°
2026-04-25 12:38 50.65515 19.49152 37910 ft 418 kts 223°
2026-04-25 12:38 50.60816 19.43702 37909 ft 419 kts 223°
2026-04-25 12:39 50.56108 19.38257 37911 ft 420 kts 223°
2026-04-25 12:39 50.51388 19.32811 37905 ft 421 kts 223°
2026-04-25 12:40 50.46695 19.27411 37919 ft 421 kts 223°
2026-04-25 12:40 50.41959 19.21974 37915 ft 421 kts 223°
2026-04-25 12:41 50.37229 19.16559 37916 ft 421 kts 223°
2026-04-25 12:41 50.32503 19.11161 37917 ft 420 kts 223°
2026-04-25 12:42 50.27773 19.05773 37916 ft 419 kts 223°
2026-04-25 12:42 50.23094 19.00455 37917 ft 418 kts 223°
2026-04-25 12:43 50.18380 18.95110 37917 ft 418 kts 223°
2026-04-25 12:43 50.11327 18.87138 37921 ft 416 kts 223°
2026-04-25 12:44 50.06636 18.81853 37925 ft 416 kts 223°
2026-04-25 12:45 49.99633 18.73986 37934 ft 415 kts 223°
2026-04-25 12:45 49.92616 18.66129 37942 ft 414 kts 223°
2026-04-25 12:46 49.87947 18.60918 37943 ft 413 kts 223°
2026-04-25 12:46 49.83561 18.55285 37951 ft 402 kts 236°
2026-04-25 12:47 49.80077 18.48647 37961 ft 399 kts 237°
2026-04-25 12:47 49.76589 18.41941 37960 ft 400 kts 237°
2026-04-25 12:48 49.73078 18.35249 37968 ft 401 kts 237°
2026-04-25 12:48 49.69541 18.28555 37964 ft 402 kts 237°
2026-04-25 12:49 49.65996 18.21872 37957 ft 403 kts 237°
2026-04-25 12:49 49.62435 18.15178 37965 ft 403 kts 237°
2026-04-25 12:50 49.58868 18.08491 37968 ft 404 kts 237°
2026-04-25 12:50 49.55313 18.01841 37973 ft 404 kts 237°
2026-04-25 12:51 49.51734 17.95164 37969 ft 404 kts 237°
2026-04-25 12:51 49.48154 17.88502 37978 ft 403 kts 236°
2026-04-25 12:52 49.44576 17.81860 37963 ft 403 kts 236°
2026-04-25 12:52 49.40995 17.75229 37969 ft 403 kts 236°
2026-04-25 12:53 49.37430 17.68644 37985 ft 403 kts 236°
2026-04-25 12:53 49.34434 17.63123 37979 ft 404 kts 236°
2026-04-25 12:54 49.30834 17.56504 37981 ft 404 kts 236°
2026-04-25 12:54 49.26642 17.48818 37993 ft 404 kts 236°
2026-04-25 12:55 49.24229 17.44403 37986 ft 404 kts 236°
2026-04-25 12:55 49.20013 17.36710 37991 ft 403 kts 236°
2026-04-25 12:56 49.16429 17.30185 37992 ft 404 kts 236°
2026-04-25 12:56 49.12807 17.23608 37992 ft 404 kts 236°
2026-04-25 12:57 49.09189 17.17055 37996 ft 404 kts 235°
2026-04-25 12:57 49.05563 17.10501 37995 ft 405 kts 235°
2026-04-25 12:58 49.01913 17.03922 37988 ft 406 kts 235°
2026-04-25 12:58 48.98288 16.97405 37982 ft 406 kts 235°
2026-04-25 12:59 48.94627 16.90839 37984 ft 407 kts 235°
2026-04-25 12:59 48.90956 16.84272 37981 ft 407 kts 235°
2026-04-25 13:00 48.87899 16.78814 37973 ft 407 kts 235°
2026-04-25 13:00 48.83600 16.71157 37979 ft 407 kts 234°
2026-04-25 13:01 48.79921 16.64623 37982 ft 407 kts 234°
2026-04-25 13:01 48.76586 16.57823 37997 ft 401 kts 242°
2026-04-25 13:02 48.73591 16.50666 37989 ft 401 kts 242°
2026-04-25 13:02 48.70610 16.43518 37991 ft 402 kts 242°
2026-04-25 13:03 48.67602 16.36382 37990 ft 402 kts 242°
2026-04-25 13:03 48.64595 16.29306 37989 ft 402 kts 242°
2026-04-25 13:04 48.61556 16.22186 37994 ft 403 kts 241°
2026-04-25 13:04 48.58510 16.15070 38002 ft 403 kts 241°
2026-04-25 13:05 48.55478 16.08005 38001 ft 403 kts 241°
2026-04-25 13:05 48.52425 16.00909 38004 ft 403 kts 241°
2026-04-25 13:06 48.49364 15.93814 38010 ft 403 kts 241°
2026-04-25 13:06 48.46301 15.86733 38010 ft 403 kts 241°
2026-04-25 13:07 48.43248 15.79694 38010 ft 403 kts 241°
2026-04-25 13:07 48.40174 15.72624 38009 ft 404 kts 241°
2026-04-25 13:08 48.37091 15.65553 38004 ft 404 kts 241°
2026-04-25 13:08 48.34000 15.58479 38000 ft 404 kts 240°
2026-04-25 13:09 48.30907 15.51421 37995 ft 404 kts 240°
2026-04-25 13:09 48.27808 15.44369 38000 ft 405 kts 240°
2026-04-25 13:10 48.24725 15.37371 38018 ft 404 kts 240°
2026-04-25 13:10 48.21623 15.30349 38019 ft 404 kts 240°
2026-04-25 13:11 48.18510 15.23317 38026 ft 404 kts 240°
2026-04-25 13:11 48.15400 15.16313 38025 ft 404 kts 240°
2026-04-25 13:12 48.12287 15.09318 38029 ft 403 kts 240°
2026-04-25 13:12 48.09695 15.03509 38028 ft 403 kts 240°
2026-04-25 13:13 48.06068 14.95400 38036 ft 403 kts 240°
2026-04-25 13:13 48.02945 14.88438 38037 ft 403 kts 240°
2026-04-25 13:14 47.99817 14.81482 38036 ft 403 kts 240°
2026-04-25 13:14 47.96681 14.74525 38040 ft 403 kts 239°
2026-04-25 13:15 47.93565 14.67632 38033 ft 403 kts 239°
2026-04-25 13:15 47.90426 14.60704 38045 ft 403 kts 239°
2026-04-25 13:16 47.87280 14.53778 38035 ft 404 kts 239°
2026-04-25 13:16 47.84123 14.46847 38037 ft 404 kts 239°
2026-04-25 13:17 47.80968 14.39936 38037 ft 403 kts 239°
2026-04-25 13:17 47.77808 14.33033 38035 ft 403 kts 239°
2026-04-25 13:18 47.74646 14.26144 38041 ft 404 kts 239°
2026-04-25 13:18 47.71478 14.19257 38040 ft 404 kts 239°
2026-04-25 13:19 47.68327 14.12424 38044 ft 404 kts 239°
2026-04-25 13:19 47.65665 14.06668 38041 ft 403 kts 239°
2026-04-25 13:20 47.61970 13.98694 38048 ft 404 kts 239°
2026-04-25 13:20 47.58780 13.91830 38055 ft 404 kts 238°
2026-04-25 13:21 47.55585 13.84971 38052 ft 404 kts 238°
2026-04-25 13:21 47.52409 13.78171 38055 ft 403 kts 238°
2026-04-25 13:22 47.49217 13.71352 38052 ft 403 kts 238°
2026-04-25 13:23 47.44416 13.61130 38059 ft 403 kts 238°
2026-04-25 13:23 47.41211 13.54326 38053 ft 404 kts 238°
2026-04-25 13:24 47.37999 13.47525 38060 ft 404 kts 238°
2026-04-25 13:24 47.34783 13.40731 38055 ft 405 kts 238°
2026-04-25 13:25 47.32085 13.35043 38159 ft 409 kts 238°
2026-04-25 13:25 47.29906 13.30460 38467 ft 407 kts 237°
2026-04-25 13:25 47.28280 13.27045 38678 ft 406 kts 237°
2026-04-25 13:25 47.26655 13.23637 38809 ft 408 kts 237°
2026-04-25 13:26 47.25039 13.20249 38911 ft 409 kts 237°
2026-04-25 13:26 47.23402 13.16823 39096 ft 409 kts 237°
2026-04-25 13:26 47.21761 13.13394 39290 ft 408 kts 237°
2026-04-25 13:26 47.20121 13.09971 39401 ft 410 kts 237°
2026-04-25 13:27 47.18477 13.06541 39480 ft 411 kts 237°
2026-04-25 13:27 47.16827 13.03106 39600 ft 411 kts 237°
2026-04-25 13:27 47.15177 12.99673 39704 ft 412 kts 237°
2026-04-25 13:28 47.11854 12.92775 39919 ft 413 kts 237°
2026-04-25 13:28 47.08523 12.85878 40120 ft 415 kts 237°
2026-04-25 13:28 47.06872 12.82465 40232 ft 415 kts 237°
2026-04-25 13:29 47.05201 12.79015 40381 ft 415 kts 237°
2026-04-25 13:29 47.01843 12.72096 40524 ft 417 kts 237°
2026-04-25 13:30 46.98474 12.65170 40753 ft 418 kts 237°
2026-04-25 13:30 46.96783 12.61703 40859 ft 418 kts 237°
2026-04-25 13:30 46.95091 12.58234 40972 ft 418 kts 237°
2026-04-25 13:31 46.91701 12.51300 41059 ft 421 kts 237°
2026-04-25 13:31 46.88281 12.44322 41068 ft 422 kts 237°
2026-04-25 13:32 46.84849 12.37337 41080 ft 423 kts 236°
2026-04-25 13:32 46.81428 12.30388 41071 ft 425 kts 236°
2026-04-25 13:33 46.77915 12.23430 41084 ft 425 kts 235°
2026-04-25 13:33 46.74297 12.16571 41067 ft 426 kts 234°
2026-04-25 13:34 46.70673 12.09738 41069 ft 424 kts 234°
2026-04-25 13:34 46.67097 12.02978 41071 ft 422 kts 234°
2026-04-25 13:35 46.64103 11.97314 41077 ft 421 kts 234°
2026-04-25 13:35 46.59958 11.89484 41090 ft 419 kts 234°
2026-04-25 13:36 46.56395 11.82772 41091 ft 418 kts 234°
2026-04-25 13:36 46.52843 11.76094 41106 ft 417 kts 234°
2026-04-25 13:37 46.49286 11.69426 41094 ft 418 kts 234°
2026-04-25 13:37 46.45744 11.62799 41082 ft 418 kts 234°
2026-04-25 13:38 46.42169 11.56128 41076 ft 419 kts 234°
2026-04-25 13:38 46.38578 11.49444 41063 ft 421 kts 234°
2026-04-25 13:39 46.34970 11.42743 41045 ft 421 kts 234°
2026-04-25 13:39 46.31375 11.36083 41036 ft 422 kts 234°
2026-04-25 13:40 46.27748 11.29380 41044 ft 423 kts 234°
2026-04-25 13:40 46.24118 11.22688 41059 ft 423 kts 234°
2026-04-25 13:41 46.20486 11.16008 41110 ft 422 kts 234°
2026-04-25 13:41 46.17467 11.10468 41133 ft 422 kts 234°
2026-04-25 13:42 46.13237 11.02724 41145 ft 422 kts 234°
2026-04-25 13:42 46.10206 10.97186 41165 ft 422 kts 234°
2026-04-25 13:43 46.06551 10.90524 41158 ft 424 kts 234°
2026-04-25 13:43 46.02886 10.83860 41147 ft 425 kts 233°
2026-04-25 13:44 45.99211 10.77194 41138 ft 425 kts 234°
2026-04-25 13:44 45.95520 10.70514 41127 ft 426 kts 233°
2026-04-25 13:45 45.91825 10.63844 41115 ft 427 kts 233°
2026-04-25 13:45 45.88137 10.57202 41087 ft 428 kts 233°
2026-04-25 13:46 45.84427 10.50538 41085 ft 427 kts 233°
2026-04-25 13:46 45.80715 10.43883 41070 ft 427 kts 233°
2026-04-25 13:47 45.77003 10.37246 41063 ft 426 kts 233°
2026-04-25 13:47 45.73292 10.30626 41057 ft 425 kts 233°
2026-04-25 13:48 45.69578 10.24016 41037 ft 426 kts 233°
2026-04-25 13:48 45.65886 10.17461 41014 ft 425 kts 233°
2026-04-25 13:49 45.62168 10.10874 41017 ft 425 kts 233°
2026-04-25 13:49 45.58446 10.04296 41006 ft 424 kts 233°
2026-04-25 13:50 45.54757 9.97792 41008 ft 424 kts 233°
2026-04-25 13:50 45.51037 9.91248 41010 ft 423 kts 233°
2026-04-25 13:51 45.47323 9.84730 41019 ft 423 kts 233°
2026-04-25 13:51 45.43603 9.78215 41014 ft 423 kts 233°
2026-04-25 13:52 45.39906 9.71755 41023 ft 424 kts 233°
2026-04-25 13:52 45.36172 9.65247 41015 ft 425 kts 232°
2026-04-25 13:53 45.32421 9.58726 41034 ft 426 kts 232°
2026-04-25 13:53 45.28683 9.52239 41024 ft 427 kts 232°
2026-04-25 13:54 45.24910 9.45708 41028 ft 428 kts 232°
2026-04-25 13:54 45.21125 9.39171 41029 ft 429 kts 232°
2026-04-25 13:55 45.17331 9.32635 41026 ft 430 kts 232°
2026-04-25 13:55 45.13517 9.26079 41035 ft 431 kts 232°
2026-04-25 13:56 45.09702 9.19534 41028 ft 431 kts 232°
2026-04-25 13:56 45.05875 9.12987 41027 ft 432 kts 232°
2026-04-25 13:57 45.02071 9.06489 41031 ft 432 kts 232°
2026-04-25 13:57 44.98226 8.99938 41039 ft 432 kts 232°
2026-04-25 13:58 44.94408 8.93401 41039 ft 431 kts 232°
2026-04-25 13:58 44.90641 8.86820 41045 ft 431 kts 232°
2026-04-25 13:59 44.86876 8.80235 41057 ft 430 kts 232°
2026-04-25 13:59 44.83108 8.73677 41067 ft 430 kts 232°
2026-04-25 14:00 44.79361 8.67179 41077 ft 430 kts 232°
2026-04-25 14:00 44.75581 8.60640 41080 ft 430 kts 232°
2026-04-25 14:01 44.71794 8.54105 41083 ft 430 kts 232°
2026-04-25 14:01 44.68026 8.47616 41084 ft 431 kts 232°
2026-04-25 14:02 44.64227 8.41090 41086 ft 431 kts 232°
2026-04-25 14:02 44.60417 8.34559 41085 ft 432 kts 232°
2026-04-25 14:03 44.56604 8.28039 41084 ft 432 kts 232°
2026-04-25 14:03 44.52784 8.21520 41084 ft 433 kts 232°
2026-04-25 14:04 44.48976 8.15037 41069 ft 433 kts 232°
2026-04-25 14:04 44.45137 8.08516 41069 ft 433 kts 231°
2026-04-25 14:05 44.41294 8.02004 41058 ft 433 kts 231°
2026-04-25 14:05 44.37449 7.95502 41056 ft 433 kts 231°
2026-04-25 14:06 44.33606 7.89018 41066 ft 432 kts 231°
2026-04-25 14:06 44.29783 7.82579 41065 ft 432 kts 231°
2026-04-25 14:07 44.25809 7.76284 41057 ft 433 kts 223°
2026-04-25 14:07 44.21286 7.70744 41064 ft 433 kts 222°
2026-04-25 14:08 44.16762 7.65192 41066 ft 433 kts 223°
2026-04-25 14:08 44.12471 7.59340 41072 ft 431 kts 230°
2026-04-25 14:09 44.08584 7.53050 41058 ft 431 kts 231°
2026-04-25 14:09 44.04683 7.46696 41065 ft 432 kts 230°
2026-04-25 14:10 44.00752 7.40389 41070 ft 432 kts 230°
2026-04-25 14:10 43.96795 7.34094 41071 ft 433 kts 230°
2026-04-25 14:11 43.92823 7.27798 41072 ft 433 kts 230°
2026-04-25 14:11 43.88844 7.21502 41063 ft 434 kts 230°
2026-04-25 14:12 43.84880 7.15242 41076 ft 434 kts 230°
2026-04-25 14:12 43.80887 7.08947 41085 ft 435 kts 230°
2026-04-25 14:13 43.76892 7.02662 41086 ft 435 kts 230°
2026-04-25 14:13 43.72965 6.96287 41073 ft 435 kts 236°
2026-04-25 14:14 43.70195 6.88899 41109 ft 433 kts 248°
2026-04-25 14:14 43.67967 6.81141 41093 ft 434 kts 249°
2026-04-25 14:15 43.65738 6.73431 41084 ft 435 kts 248°
2026-04-25 14:15 43.63458 6.65688 41090 ft 435 kts 248°
2026-04-25 14:16 43.61162 6.57962 41080 ft 435 kts 248°
2026-04-25 14:16 43.58852 6.50217 41074 ft 435 kts 248°
2026-04-25 14:17 43.56545 6.42502 41067 ft 435 kts 248°
2026-04-25 14:17 43.54233 6.34791 41045 ft 435 kts 248°
2026-04-25 14:18 43.51920 6.27100 41036 ft 434 kts 248°
2026-04-25 14:18 43.49618 6.19468 41036 ft 434 kts 248°
2026-04-25 14:19 43.47296 6.11788 41039 ft 433 kts 248°
2026-04-25 14:19 43.44975 6.04137 41032 ft 433 kts 248°
2026-04-25 14:20 43.42653 5.96500 41035 ft 432 kts 248°
2026-04-25 14:20 43.40334 5.88886 41069 ft 431 kts 248°
2026-04-25 14:21 43.38012 5.81285 41077 ft 431 kts 248°
2026-04-25 14:21 43.35683 5.73682 41073 ft 432 kts 248°
2026-04-25 14:22 43.33359 5.66120 41069 ft 432 kts 248°
2026-04-25 14:22 43.31010 5.58494 41068 ft 433 kts 248°
2026-04-25 14:23 43.28651 5.50861 41059 ft 434 kts 247°
2026-04-25 14:23 43.26288 5.43233 41073 ft 435 kts 247°
2026-04-25 14:24 43.23773 5.35693 41067 ft 436 kts 239°
2026-04-25 14:24 43.19930 5.29272 41066 ft 437 kts 222°
2026-04-25 14:25 43.15293 5.23871 41075 ft 437 kts 220°
2026-04-25 14:25 43.10654 5.18559 41072 ft 438 kts 221°
2026-04-25 14:26 43.05991 5.13169 41071 ft 438 kts 221°
2026-04-25 14:26 43.01343 5.07765 41075 ft 438 kts 221°
2026-04-25 14:27 42.96699 5.02364 41075 ft 439 kts 221°
2026-04-25 14:27 42.92072 4.96992 41074 ft 439 kts 221°
2026-04-25 14:28 42.87421 4.91606 41075 ft 439 kts 221°
2026-04-25 14:28 42.82764 4.86225 41074 ft 439 kts 221°
2026-04-25 14:29 42.78100 4.80847 41063 ft 439 kts 221°
2026-04-25 14:29 42.74213 4.76373 41065 ft 439 kts 221°
2026-04-25 14:30 42.69552 4.71017 41065 ft 438 kts 221°
2026-04-25 14:30 42.62580 4.63028 41064 ft 438 kts 220°
2026-04-25 14:31 42.57916 4.57697 41066 ft 438 kts 220°
2026-04-25 14:31 42.53249 4.52373 41073 ft 438 kts 220°
2026-04-25 14:32 42.48614 4.47096 41074 ft 437 kts 220°
2026-04-25 14:32 42.43942 4.41787 41074 ft 437 kts 220°
2026-04-25 14:33 42.39276 4.36496 41075 ft 437 kts 220°
2026-04-25 14:33 42.34606 4.31211 41071 ft 438 kts 220°
2026-04-25 14:34 42.29934 4.25935 41074 ft 438 kts 220°
2026-04-25 14:34 42.25251 4.20655 41075 ft 438 kts 220°
2026-04-25 14:35 42.20563 4.15378 41081 ft 439 kts 220°
2026-04-25 14:35 42.15755 4.10399 41071 ft 439 kts 210°
2026-04-25 14:36 42.10382 4.06477 41083 ft 440 kts 208°
2026-04-25 14:36 42.04959 4.02591 41082 ft 440 kts 209°
2026-04-25 14:37 41.99570 3.98653 41082 ft 441 kts 209°
2026-04-25 14:37 41.94174 3.94729 41072 ft 441 kts 206°
2026-04-25 14:38 41.88327 3.92285 41088 ft 442 kts 191°
2026-04-25 14:38 41.82282 3.90964 41078 ft 442 kts 190°
2026-04-25 14:39 41.76205 3.89620 41084 ft 442 kts 190°
2026-04-25 14:39 41.70133 3.88217 41085 ft 442 kts 191°
2026-04-25 14:40 41.64059 3.86802 41093 ft 442 kts 190°
2026-04-25 14:40 41.57991 3.85400 41096 ft 442 kts 190°
2026-04-25 14:41 41.52057 3.84046 41005 ft 420 kts 190°
2026-04-25 14:41 41.49228 3.83403 40542 ft 417 kts 190°
2026-04-25 14:41 41.46340 3.82745 39737 ft 423 kts 190°
2026-04-25 14:42 41.43415 3.82078 38966 ft 428 kts 190°
2026-04-25 14:42 41.41462 3.81633 38488 ft 430 kts 190°
2026-04-25 14:42 41.37514 3.80735 37513 ft 428 kts 190°
2026-04-25 14:42 41.34577 3.80067 36508 ft 430 kts 189°
2026-04-25 14:43 41.31605 3.79393 35427 ft 437 kts 189°
2026-04-25 14:43 41.28608 3.78712 34908 ft 434 kts 190°
2026-04-25 14:43 41.25638 3.78039 34378 ft 432 kts 190°
2026-04-25 14:43 41.22729 3.77380 33904 ft 428 kts 190°
2026-04-25 14:44 41.19800 3.76718 33425 ft 426 kts 190°
2026-04-25 14:44 41.16888 3.76059 32950 ft 423 kts 190°
2026-04-25 14:44 41.14038 3.75154 32460 ft 420 kts 199°
2026-04-25 14:44 41.11306 3.73800 31996 ft 418 kts 202°
2026-04-25 14:45 41.08608 3.72378 31527 ft 416 kts 202°
2026-04-25 14:45 41.05930 3.70950 31075 ft 414 kts 202°
2026-04-25 14:45 41.03263 3.69534 30609 ft 412 kts 202°
2026-04-25 14:45 41.00603 3.68136 30161 ft 410 kts 202°
2026-04-25 14:46 40.97951 3.66755 29705 ft 407 kts 202°
2026-04-25 14:46 40.95320 3.65394 29242 ft 405 kts 202°
2026-04-25 14:46 40.92700 3.64044 28773 ft 403 kts 202°
2026-04-25 14:46 40.90090 3.62702 28306 ft 401 kts 201°
2026-04-25 14:47 40.87496 3.61371 27843 ft 399 kts 202°
2026-04-25 14:47 40.85780 3.60491 27532 ft 398 kts 201°
2026-04-25 14:47 40.82372 3.58744 26916 ft 395 kts 201°
2026-04-25 14:47 40.79813 3.57433 26454 ft 393 kts 201°
2026-04-25 14:48 40.77267 3.56131 25992 ft 391 kts 201°
2026-04-25 14:48 40.74730 3.54833 25529 ft 389 kts 201°
2026-04-25 14:48 40.72205 3.53544 25073 ft 387 kts 201°
2026-04-25 14:48 40.69702 3.52265 24621 ft 385 kts 201°
2026-04-25 14:49 40.67207 3.50992 24167 ft 383 kts 201°
2026-04-25 14:49 40.64727 3.49728 23716 ft 381 kts 201°
2026-04-25 14:49 40.62257 3.48470 23265 ft 379 kts 201°
2026-04-25 14:49 40.59799 3.47220 22814 ft 378 kts 201°
2026-04-25 14:50 40.57353 3.45975 22366 ft 376 kts 201°
2026-04-25 14:50 40.54921 3.44739 21920 ft 374 kts 201°
2026-04-25 14:50 40.52532 3.43526 21477 ft 372 kts 200°
2026-04-25 14:50 40.50088 3.42286 21035 ft 370 kts 200°
2026-04-25 14:51 40.47725 3.41088 20607 ft 368 kts 200°
2026-04-25 14:51 40.45338 3.39882 20150 ft 367 kts 199°
2026-04-25 14:51 40.42868 3.39183 19690 ft 363 kts 180°
2026-04-25 14:51 40.40353 3.39264 19279 ft 356 kts 176°
2026-04-25 14:52 40.37915 3.39433 18842 ft 346 kts 175°
2026-04-25 14:52 40.35538 3.39611 18428 ft 337 kts 175°
2026-04-25 14:52 40.33215 3.39778 18028 ft 329 kts 175°
2026-04-25 14:52 40.31707 3.39880 17775 ft 326 kts 175°
2026-04-25 14:53 40.28724 3.40072 17273 ft 323 kts 176°
2026-04-25 14:53 40.26442 3.40212 16905 ft 336 kts 176°
2026-04-25 14:53 40.24064 3.40355 16499 ft 345 kts 176°
2026-04-25 14:53 40.21680 3.40495 16065 ft 338 kts 176°
2026-04-25 14:54 40.19359 3.40628 15649 ft 329 kts 176°
2026-04-25 14:54 40.17103 3.40757 15251 ft 320 kts 176°
2026-04-25 14:54 40.14919 3.40883 14873 ft 315 kts 176°
2026-04-25 14:54 40.12738 3.41009 14498 ft 312 kts 176°
2026-04-25 14:55 40.10559 3.41136 14135 ft 319 kts 176°
2026-04-25 14:55 40.08290 3.41268 13748 ft 331 kts 176°
2026-04-25 14:55 40.06011 3.41398 13543 ft 322 kts 176°
2026-04-25 14:55 40.03829 3.41522 13373 ft 305 kts 176°
2026-04-25 14:56 40.01753 3.41640 13103 ft 294 kts 176°
2026-04-25 14:56 39.99739 3.41716 12744 ft 288 kts 184°
2026-04-25 14:56 39.97892 3.40800 12398 ft 281 kts 219°
2026-04-25 14:56 39.96493 3.39130 12305 ft 265 kts 223°
2026-04-25 14:57 39.95159 3.37508 12001 ft 260 kts 223°
2026-04-25 14:57 39.93832 3.35906 11600 ft 260 kts 223°
2026-04-25 14:57 39.92523 3.34333 11221 ft 258 kts 223°
2026-04-25 14:57 39.91205 3.32759 10846 ft 256 kts 222°
2026-04-25 14:58 39.89889 3.31192 10473 ft 255 kts 222°
2026-04-25 14:58 39.88583 3.29641 10100 ft 253 kts 222°
2026-04-25 14:58 39.87282 3.28099 9732 ft 251 kts 222°
2026-04-25 14:58 39.85993 3.26575 9354 ft 250 kts 222°
2026-04-25 14:59 39.84711 3.25059 8990 ft 248 kts 222°
2026-04-25 14:59 39.83436 3.23554 8604 ft 247 kts 222°
2026-04-25 14:59 39.82180 3.22072 8237 ft 245 kts 221°
2026-04-25 14:59 39.80916 3.20582 7856 ft 244 kts 221°
2026-04-25 15:00 39.80490 3.20080 7727 ft 244 kts 221°
2026-04-25 15:00 39.78403 3.17622 7059 ft 243 kts 221°
2026-04-25 15:00 39.77150 3.16147 6660 ft 243 kts 221°
2026-04-25 15:00 39.75900 3.14675 6275 ft 242 kts 221°
2026-04-25 15:01 39.74649 3.13205 5872 ft 243 kts 221°
2026-04-25 15:01 39.73412 3.11752 5480 ft 242 kts 221°
2026-04-25 15:01 39.72161 3.10285 5090 ft 242 kts 221°
2026-04-25 15:01 39.70952 3.08843 5012 ft 231 kts 226°
2026-04-25 15:02 39.70073 3.07137 5000 ft 225 kts 243°
2026-04-25 15:02 39.69320 3.05342 4995 ft 228 kts 239°
2026-04-25 15:02 39.68483 3.03545 4776 ft 237 kts 238°
2026-04-25 15:02 39.67617 3.01723 4473 ft 236 kts 238°
2026-04-25 15:03 39.66763 2.99925 4168 ft 232 kts 238°
2026-04-25 15:03 39.65922 2.98153 3877 ft 228 kts 238°
2026-04-25 15:03 39.65102 2.96419 3558 ft 221 kts 238°
2026-04-25 15:03 39.64318 2.94752 3274 ft 212 kts 238°
2026-04-25 15:04 39.63556 2.93147 2994 ft 205 kts 237°
2026-04-25 15:04 39.62830 2.91612 2735 ft 200 kts 237°
2026-04-25 15:04 39.62116 2.90091 2465 ft 193 kts 238°
2026-04-25 15:04 39.61422 2.88626 2225 ft 191 kts 236°
2026-04-25 15:05 39.60727 2.87166 1944 ft 188 kts 236°
2026-04-25 15:05 39.60059 2.85749 1713 ft 181 kts 237°
2026-04-25 15:05 39.59414 2.84380 1458 ft 174 kts 237°
2026-04-25 15:06 39.58246 2.81905 1046 ft 149 kts 237°
2026-04-25 15:06 39.57728 2.80806 871 ft 137 kts 237°
2026-04-25 15:06 39.57243 2.79779 679 ft 130 kts 238°
2026-04-25 15:06 39.56771 2.78776 511 ft 132 kts 238°
2026-04-25 15:07 39.56289 2.77755 351 ft 133 kts 238°
2026-04-25 15:07 39.55801 2.76720 149 ft 135 kts 239°
2026-04-25 15:07 39.55330 2.75725 39 ft 119 kts 238°
2026-04-25 15:07 39.54959 2.74937 36 ft 81 kts 238°
2026-04-25 15:08 39.54733 2.74457 37 ft 50 kts 239°
2026-04-25 15:08 39.54609 2.74186 36 ft 28 kts 243°
2026-04-25 15:08 39.54555 2.73953 35 ft 26 kts 264°
2026-04-25 15:08 39.54552 2.73827 35 ft 0 kts 269°
2026-04-25 15:10 39.54552 2.73806 35 ft 6 kts 269°
2026-04-25 15:10 39.54561 2.73704 36 ft 16 kts 292°
2026-04-25 15:10 39.54777 2.73524 35 ft 17 kts 328°
2026-04-25 15:11 39.54865 2.73532 36 ft 9 kts 46°
2026-04-25 15:11 39.54872 2.73541 36 ft 0 kts 46°